Weather History for Glenwood, MN

Change the Weather History Date:

Tuesday, March 25, 2014

  Actual Average Record
Temperature  
Mean Temperature 15 °F -  
Max Temperature 24 °F 41 °F 66 °F (1968)
Min Temperature 6 °F 26 °F -6 °F (1952)
Degree Days  
Heating Degree Days 50    
Moisture  
Dew Point 5 °F    
Average Humidity 66    
Maximum Humidity 85    
Minimum Humidity 46    
Precipitation  
Precipitation 0.00 in - - ()
Sea Level Pressure  
Sea Level Pressure 30.20 in    
Wind  
Wind Speed 12 mph (WNW)    
Max Wind Speed 17 mph    
Max Gust Speed 24 mph    
Visibility 10 miles    
Events Snow    
Averages and records for this station are not official NWS values.
T = Trace of Precipitation, MM = Missing Value Source: NWS Daily Summary

Daily Weather History Graph

Daily Weather History Graph

Search for Another Location

Airport:

Trip Planner

Search our weather history database for the weather conditions in past years. The results will help you decide how hot, cold, wet, or windy it might be!

Date:

Astronomy

Mar. 25, 2014 Rise Set
Actual Time 7:14 AM CDT 7:40 PM CDT
Civil Twilight 6:45 AM CDT 8:10 PM CDT
Nautical Twilight 6:09 AM CDT 8:45 PM CDT
Astronomical Twilight 5:33 AM CDT 9:21 PM CDT
Moon 3:52 AM CDT (3/25) 1:57 PM CDT (3/25)
Length of Visible Light 13h 25m
Length of Day
12h 25m
Waning Crescent, 32% of the Moon is Illuminated
Mar 25
Waning Crescent
Mar 30
New
Apr 7
First Quarter
Apr 15
Full
Apr 22
Last Quarter

Hourly Weather History & Observations

Time (CDT) Temp. Windchill Dew Point Humidity Pressure Visibility Wind Dir Wind Speed Gust Speed Precip Events Conditions
12:01 AM 15.8 °F -0.2 °F 8.6 °F 73% 30.17 in 10.0 mi NNW 17.3 mph 24.2 mph N/A   Scattered Clouds
12:21 AM 14.0 °F -1.4 °F 6.8 °F 73% 30.18 in 10.0 mi NNW 15.0 mph 20.7 mph N/A   Clear
12:41 AM 14.0 °F -0.2 °F 6.8 °F 73% 30.19 in 10.0 mi NNW 12.7 mph - N/A   Scattered Clouds
1:01 AM 12.2 °F -2.5 °F 6.8 °F 79% 30.19 in 10.0 mi NNW 12.7 mph 21.9 mph N/A   Scattered Clouds
1:21 AM 12.2 °F -1.0 °F 6.8 °F 79% 30.20 in 10.0 mi NNW 10.4 mph - N/A   Clear
1:41 AM 12.2 °F -2.5 °F 5.0 °F 73% 30.20 in 10.0 mi NNW 12.7 mph - N/A   Clear
2:01 AM 10.4 °F -4.8 °F 5.0 °F 79% 30.21 in 10.0 mi NNW 12.7 mph 19.6 mph N/A   Clear
2:21 AM 10.4 °F -4.1 °F 5.0 °F 79% 30.21 in 10.0 mi NNW 11.5 mph - N/A   Clear
2:41 AM 10.4 °F -4.8 °F 3.2 °F 73% 30.21 in 10.0 mi NW 12.7 mph - N/A   Clear
3:01 AM 10.4 °F -3.3 °F 5.0 °F 79% 30.22 in 10.0 mi NW 10.4 mph - N/A   Clear
3:21 AM 10.4 °F -2.4 °F 3.2 °F 73% 30.22 in 10.0 mi NNW 9.2 mph - N/A   Clear
3:41 AM 10.4 °F -3.3 °F 1.4 °F 67% 30.22 in 10.0 mi NW 10.4 mph - N/A   Clear
4:01 AM 10.4 °F -6.6 °F 1.4 °F 67% 30.23 in 10.0 mi NW 16.1 mph 20.7 mph N/A   Clear
4:21 AM 8.6 °F -3.7 °F 1.4 °F 73% 30.23 in 10.0 mi NW 8.1 mph - N/A   Clear
4:41 AM 8.6 °F -2.6 °F 1.4 °F 73% 30.23 in 10.0 mi NW 6.9 mph - N/A   Clear
5:01 AM 8.6 °F -4.7 °F 3.2 °F 79% 30.24 in 10.0 mi NW 9.2 mph - N/A   Scattered Clouds
5:21 AM 10.4 °F -5.4 °F 3.2 °F 73% 30.24 in 10.0 mi NW 13.8 mph - N/A   Mostly Cloudy
5:41 AM 10.4 °F -4.1 °F 3.2 °F 73% 30.24 in 10.0 mi NW 11.5 mph 17.3 mph N/A   Scattered Clouds
6:01 AM 8.6 °F -6.3 °F 3.2 °F 79% 30.25 in 10.0 mi WNW 11.5 mph - N/A   Scattered Clouds
6:21 AM 10.4 °F -3.3 °F 5.0 °F 79% 30.25 in 7.0 mi WNW 10.4 mph - N/A   Mostly Cloudy
6:44 AM 8.6 °F -5.5 °F 3.2 °F 79% 30.25 in 10.0 mi NW 10.4 mph - N/A   Scattered Clouds
6:53 AM 8.6 °F -4.7 °F 3.2 °F 79% 30.26 in 10.0 mi WNW 9.2 mph - N/A   Clear
7:13 AM 8.6 °F -5.5 °F 3.2 °F 79% 30.26 in 10.0 mi WNW 10.4 mph - N/A Snow Light Snow
7:34 AM 6.8 °F -6.9 °F 3.2 °F 85% 30.26 in 10.0 mi WNW 9.2 mph - N/A   Clear
7:53 AM 8.6 °F -5.5 °F 3.2 °F 79% 30.26 in 10.0 mi WNW 10.4 mph - N/A   Clear
8:13 AM 8.6 °F -5.5 °F 3.2 °F 79% 30.26 in 10.0 mi WNW 10.4 mph - N/A   Clear
8:33 AM 8.6 °F -4.7 °F 3.2 °F 79% 30.27 in 10.0 mi WNW 9.2 mph - N/A   Clear
8:53 AM 10.4 °F -5.4 °F 3.2 °F 73% 30.27 in 10.0 mi WNW 13.8 mph - N/A   Clear
9:14 AM 10.4 °F -4.8 °F 3.2 °F 73% 30.28 in 10.0 mi WNW 12.7 mph - N/A   Clear
9:33 AM 12.2 °F -2.5 °F 3.2 °F 67% 30.28 in 10.0 mi WNW 12.7 mph - N/A   Clear
9:53 AM 12.2 °F -2.5 °F 5.0 °F 73% 30.29 in 10.0 mi WNW 12.7 mph - N/A   Clear
10:13 AM 12.2 °F -3.1 °F 5.0 °F 73% 30.29 in 10.0 mi West 13.8 mph - N/A   Clear
10:33 AM 14.0 °F 2.0 °F 6.8 °F 73% 30.28 in 10.0 mi West 9.2 mph - N/A   Scattered Clouds
10:53 AM 14.0 °F -0.2 °F 6.8 °F 73% 30.27 in 10.0 mi West 12.7 mph 17.3 mph N/A   Scattered Clouds
11:13 AM 15.8 °F 3.4 °F 6.8 °F 68% 30.27 in 10.0 mi West 10.4 mph - N/A   Scattered Clouds
11:34 AM 15.8 °F 5.1 °F 5.0 °F 62% 30.27 in 10.0 mi West 8.1 mph 17.3 mph N/A   Mostly Cloudy
11:53 AM 15.8 °F 0.9 °F 5.0 °F 62% 30.27 in 10.0 mi West 15.0 mph - N/A   Mostly Cloudy
12:13 PM 15.8 °F 1.4 °F 3.2 °F 58% 30.27 in 10.0 mi West 13.8 mph 19.6 mph N/A   Mostly Cloudy
12:33 PM 17.6 °F 5.0 °F 3.2 °F 53% 30.26 in 10.0 mi WNW 11.5 mph 17.3 mph N/A   Mostly Cloudy
12:40 PM 17.6 °F 3.7 °F 5.0 °F 58% 30.25 in 10.0 mi West 13.8 mph - N/A   Mostly Cloudy
1:14 PM 19.4 °F 5.5 °F 5.0 °F 54% 30.24 in 10.0 mi West 15.0 mph 21.9 mph N/A   Mostly Cloudy
1:33 PM 19.4 °F 6.6 °F 5.0 °F 54% 30.23 in 10.0 mi West 12.7 mph 23.0 mph N/A   Mostly Cloudy
1:53 PM 19.4 °F 6.0 °F 5.0 °F 54% 30.23 in 10.0 mi West 13.8 mph 19.6 mph N/A   Scattered Clouds
2:13 PM 21.2 °F 10.1 °F 6.8 °F 54% 30.22 in 10.0 mi West 10.4 mph 21.9 mph N/A   Mostly Cloudy
2:34 PM 21.2 °F 7.8 °F 5.0 °F 50% 30.21 in 10.0 mi West 15.0 mph 18.4 mph N/A   Mostly Cloudy
2:53 PM 23.0 °F 10.1 °F 5.0 °F 46% 30.20 in 10.0 mi West 15.0 mph 20.7 mph N/A   Mostly Cloudy
3:13 PM 23.0 °F 9.2 °F 5.0 °F 46% 30.19 in 10.0 mi West 17.3 mph 21.9 mph N/A   Mostly Cloudy
3:33 PM 21.2 °F 7.3 °F 5.0 °F 50% 30.19 in 10.0 mi NW 16.1 mph - N/A   Mostly Cloudy
3:53 PM 23.0 °F 11.7 °F 5.0 °F 46% 30.18 in 10.0 mi NW 11.5 mph 20.7 mph N/A   Mostly Cloudy
4:14 PM 24.8 °F 13.4 °F 6.8 °F 46% 30.17 in 10.0 mi WNW 12.7 mph 18.4 mph N/A   Mostly Cloudy
4:33 PM 21.2 °F 9.5 °F 6.8 °F 54% 30.16 in 10.0 mi NW 11.5 mph - N/A   Mostly Cloudy
4:53 PM 21.2 °F 8.9 °F 6.8 °F 54% 30.16 in 10.0 mi WNW 12.7 mph 19.6 mph N/A   Scattered Clouds
5:11 PM 23.0 °F 11.7 °F 6.8 °F 50% 30.15 in 10.0 mi WNW 11.5 mph - N/A   Scattered Clouds
5:21 PM 24.8 °F 12.9 °F 6.8 °F 46% 30.16 in 10.0 mi West 13.8 mph 18.4 mph N/A   Scattered Clouds
5:41 PM 24.8 °F 14.0 °F 6.8 °F 46% 30.15 in 10.0 mi WNW 11.5 mph - N/A   Scattered Clouds
6:01 PM 24.8 °F 13.4 °F 6.8 °F 46% 30.14 in 10.0 mi WNW 12.7 mph 17.3 mph N/A   Scattered Clouds
6:21 PM 24.8 °F 15.3 °F 6.8 °F 46% 30.14 in 10.0 mi NW 9.2 mph - N/A   Scattered Clouds
6:41 PM 23.0 °F 13.9 °F 6.8 °F 50% 30.14 in 10.0 mi WNW 8.1 mph - N/A   Scattered Clouds
7:01 PM 21.2 °F 9.5 °F 6.8 °F 54% 30.14 in 10.0 mi WNW 11.5 mph - N/A   Clear
7:21 PM 21.2 °F 11.7 °F 6.8 °F 54% 30.13 in 10.0 mi NW 8.1 mph - N/A   Clear
7:41 PM 19.4 °F 12.8 °F 6.8 °F 58% 30.13 in 10.0 mi NW 4.6 mph - N/A   Clear
8:01 PM 19.4 °F 14.3 °F 6.8 °F 58% 30.12 in 10.0 mi NW 3.5 mph - N/A   Clear
8:21 PM 19.4 °F - 8.6 °F 63% 30.12 in 10.0 mi NW 2.3 mph - N/A   Clear
8:41 PM 19.4 °F - 6.8 °F 58% 30.11 in 10.0 mi NNW 1.2 mph - N/A   Clear
9:01 PM 19.4 °F - 6.8 °F 58% 30.12 in 10.0 mi Calm Calm - N/A   Clear
9:21 PM 17.6 °F - 8.6 °F 68% 30.12 in 10.0 mi Calm Calm - N/A   Clear
9:41 PM 17.6 °F - 8.6 °F 68% 30.11 in 10.0 mi SE 2.3 mph - N/A   Clear
10:01 PM 15.8 °F 10.2 °F 8.6 °F 73% 30.10 in 10.0 mi SSE 3.5 mph - N/A   Clear
10:21 PM 15.8 °F 8.6 °F 6.8 °F 68% 30.10 in 10.0 mi SSE 4.6 mph - N/A   Clear
10:41 PM 15.8 °F 8.6 °F 6.8 °F 68% 30.10 in 10.0 mi SSE 4.6 mph - N/A   Clear
11:01 PM 14.0 °F 6.5 °F 6.8 °F 73% 30.10 in 10.0 mi SSE 4.6 mph - N/A   Clear
11:21 PM 14.0 °F 5.1 °F 6.8 °F 73% 30.09 in 10.0 mi SE 5.8 mph - N/A   Clear
11:41 PM 12.2 °F 6.1 °F 6.8 °F 79% 30.09 in 10.0 mi SE 3.5 mph - N/A   Clear